GW3513 Weather Reports


time (UTC)temp
C
wind
direction
speed
KPH
gust
KPH
rain 1hr
cm
rain 24hr
cm
rain mn
cm
humidity
%
barometer
mb
20260906174938 48 161 0.0 0.0 0.00 0.00 0.00 25 1017.8
20260906174437 50 161 0.0 0.0 0.00 0.00 0.00 23 1017.8
20260906173932 48 161 0.0 0.0 0.00 0.00 0.00 25 1017.9
20260906173427 47 161 0.0 0.0 0.00 0.00 0.00 26 1018.1
20260906172927 47 161 0.0 0.0 0.00 0.00 0.00 26 1018.2
20260906172424 48 161 0.0 0.0 0.00 0.00 0.00 26 1018.4
20260906171918 47 161 0.0 0.0 0.00 0.00 0.00 26 1018.6
20260906171413 48 161 0.0 0.0 0.00 0.00 0.00 26 1018.7
20260906170909 47 161 0.0 0.0 0.00 0.00 0.00 26 1018.6
20260906170406 45 161 0.0 0.0 0.00 0.00 0.00 29 1018.5
20260906165902 47 161 0.0 0.0 0.00 0.00 0.00 27 1018.7
20260906165401 46 161 0.0 0.0 0.00 0.00 0.00 29 1018.9
20260906164856 47 161 0.0 0.0 0.00 0.00 0.00 28 1019.0
20260906164354 46 161 0.0 0.0 0.00 0.00 0.00 29 1018.9
20260906163845 46 161 0.0 0.0 0.00 0.00 0.00 28 1018.9
20260906163342 46 161 0.0 0.0 0.00 0.00 0.00 29 1019.2
20260906162839 45 161 0.0 0.0 0.00 0.00 0.00 29 1019.1
20260906162338 45 161 0.0 0.0 0.00 0.00 0.00 30 1019.1
20260906161833 45 161 0.0 0.0 0.00 0.00 0.00 29 1019.0
20260906161332 45 161 0.0 0.0 0.00 0.00 0.00 30 1019.1
20260906160831 44 161 0.0 0.0 0.00 0.00 0.00 30 1019.1
20260906160325 44 161 0.0 0.0 0.00 0.00 0.00 32 1019.1
20260906155824 43 162 0.0 0.0 0.00 0.00 0.00 31 1019.1
20260906155317 43 162 0.0 0.0 0.00 0.00 0.00 31 1019.3
20260906154814 43 161 0.0 0.0 0.00 0.00 0.00 32 1019.0
20260906154308 43 161 0.0 0.0 0.00 0.00 0.00 32 1019.1
20260906153806 42 162 0.0 0.0 0.00 0.00 0.00 33 1019.1
20260906153300 42 161 0.0 0.0 0.00 0.00 0.00 34 1019.2
20260906152756 42 162 0.0 0.0 0.00 0.00 0.00 34 1018.9
20260906152250 41 162 0.0 0.0 0.00 0.00 0.00 34 1018.9
20260906151744 41 162 0.0 0.0 0.00 0.00 0.00 34 1019.1
20260906151241 41 161 0.0 0.0 0.00 0.00 0.00 34 1019.0
20260906150736 41 161 0.0 0.0 0.00 0.00 0.00 34 1019.0
20260906150231 41 161 0.0 0.0 0.00 0.00 0.00 35 1018.5
20260906145730 40 162 0.0 0.0 0.00 0.00 0.00 36 1018.6
20260906145229 39 161 0.0 0.0 0.00 0.00 0.00 37 1018.6
20260906144725 38 161 0.0 0.0 0.00 0.00 0.00 40 1018.9
20260906144219 38 161 0.0 0.0 0.00 0.00 0.00 41 1018.9
20260906143718 37 161 0.0 0.0 0.00 0.00 0.00 41 1018.9
20260906143216 37 162 0.0 0.0 0.00 0.00 0.00 43 1018.7
20260906142715 36 161 0.0 0.0 0.00 0.00 0.00 45 1018.6
20260906142210 35 162 0.0 0.0 0.00 0.00 0.00 46 1018.7
20260906141709 35 162 0.0 0.0 0.00 0.00 0.00 48 1018.7
20260906141204 34 161 0.0 0.0 0.00 0.00 0.00 49 1018.5
20260906140703 33 162 0.0 0.0 0.00 0.00 0.00 51 1018.7
20260906140159 32 162 0.0 0.0 0.00 0.00 0.00 52 1018.6
20260906135655 32 162 0.0 0.0 0.00 0.00 0.00 53 1018.7
20260906135151 32 162 0.0 0.0 0.00 0.00 0.00 55 1018.9
20260906134647 31 162 0.0 0.0 0.00 0.00 0.00 56 1018.7
20260906134141 31 162 0.0 0.0 0.00 0.00 0.00 56 1018.7
20260906133632 30 162 0.0 0.0 0.00 0.00 0.00 58 1018.7
20260906133126 30 162 0.0 0.0 0.00 0.00 0.00 62 1018.6
20260906132621 28 162 0.0 0.0 0.00 0.00 0.00 65 1018.6
20260906132117 28 162 0.0 0.0 0.00 0.00 0.00 67 1018.7
20260906131612 27 162 0.0 0.0 0.00 0.00 0.00 70 1018.5
20260906131107 26 162 0.0 0.0 0.00 0.00 0.00 73 1018.4
20260906130603 26 162 0.0 0.0 0.00 0.00 0.00 76 1018.3
20260906130057 25 162 0.0 0.0 0.00 0.00 0.00 78 1018.3
20260906125554 25 162 0.0 0.0 0.00 0.00 0.00 79 1018.2
20260906125054 24 162 0.0 0.0 0.00 0.00 0.00 80 1018.2
20260906124549 23 162 0.0 0.0 0.00 0.00 0.00 83 1018.3
20260906124044 23 162 0.0 0.0 0.00 0.00 0.00 80 1018.2
20260906123543 23 162 0.0 0.0 0.00 0.00 0.00 81 1018.2
20260906123040 23 162 0.0 0.0 0.00 0.00 0.00 81 1018.0
20260906122538 23 162 0.0 0.0 0.00 0.00 0.00 81 1018.0
20260906122035 22 162 0.0 0.0 0.00 0.00 0.00 82 1017.9
20260906121531 22 161 0.0 0.0 0.00 0.00 0.00 84 1017.8
20260906121027 22 161 0.0 0.0 0.00 0.00 0.00 84 1017.8
20260906120521 22 161 0.0 0.0 0.00 0.00 0.00 84 1017.9
20260906120019 22 161 0.0 0.0 0.00 0.00 0.00 84 1017.9
20260906115513 22 161 0.0 0.0 0.00 0.00 0.00 85 1017.7
20260906115008 21 160 0.0 0.0 0.00 0.00 0.00 85 1017.5
20260906114503 22 160 0.0 0.0 0.00 0.00 0.00 85 1017.4
20260906113959 22 160 0.0 0.0 0.00 0.00 0.00 85 1017.7
20260906113457 22 160 0.0 0.0 0.00 0.00 0.00 84 1017.6
20260906112953 22 160 0.0 0.0 0.00 0.00 0.00 85 1017.5
20260906112448 22 160 0.0 0.0 0.00 0.00 0.00 84 1017.6
20260906111944 22 161 0.0 0.0 0.00 0.00 0.00 83 1017.3
20260906111443 22 161 0.0 0.0 0.00 0.00 0.00 83 1017.4
20260906110938 22 161 0.0 0.0 0.00 0.00 0.00 83 1017.5
20260906110433 22 161 0.0 0.0 0.00 0.00 0.00 83 1017.4
20260906105932 22 161 0.0 0.0 0.00 0.00 0.00 84 1017.4
20260906105428 22 161 0.0 0.0 0.00 0.00 0.00 83 1017.4
20260906104924 22 161 0.0 0.0 0.00 0.00 0.00 83 1017.3
20260906104422 22 161 0.0 0.0 0.00 0.00 0.00 83 1017.5
20260906103922 22 161 0.0 0.0 0.00 0.00 0.00 83 1017.4
20260906103420 22 161 0.0 0.0 0.00 0.00 0.00 83 1017.3
20260906102916 22 161 0.0 0.0 0.00 0.00 0.00 82 1017.2
20260906102415 22 161 0.0 0.0 0.00 0.00 0.00 81 1017.2
20260906101910 22 161 0.0 0.0 0.00 0.00 0.00 82 1017.2
20260906101405 22 161 0.0 0.0 0.00 0.00 0.00 82 1017.3
20260906100901 22 160 0.0 0.0 0.00 0.00 0.00 83 1017.0
20260906100400 21 161 0.0 0.0 0.00 0.00 0.00 85 1017.1
20260906095855 21 161 0.0 0.0 0.00 0.00 0.00 84 1017.2
20260906095350 22 160 0.0 0.0 0.00 0.00 0.00 84 1017.1
20260906094850 22 160 0.0 0.0 0.00 0.00 0.00 84 1017.0
20260906094344 22 160 0.0 0.0 0.00 0.00 0.00 83 1017.1
20260906093841 22 160 0.0 0.0 0.00 0.00 0.00 82 1016.9
20260906093336 22 161 0.0 0.0 0.00 0.00 0.00 83 1017.1
20260906092831 22 161 0.0 0.0 0.00 0.00 0.00 83 1017.1
20260906092325 22 161 0.0 0.0 0.00 0.00 0.00 83 1017.1
20260906091821 22 161 0.0 0.0 0.00 0.00 0.00 84 1017.0
20260906091317 22 161 0.0 0.0 0.00 0.00 0.00 84 1017.0
20260906090813 22 161 0.0 0.0 0.00 0.00 0.00 83 1016.9
20260906090312 22 161 0.0 0.0 0.00 0.00 0.00 83 1017.0
20260906085807 22 161 0.0 0.0 0.00 0.00 0.00 82 1016.8
20260906085307 22 161 0.0 0.0 0.00 0.00 0.00 82 1016.9
20260906084801 22 161 0.0 0.0 0.00 0.00 0.00 81 1016.9
20260906084301 22 161 0.0 0.0 0.00 0.00 0.00 81 1016.9
20260906083755 23 161 0.0 0.0 0.00 0.00 0.00 80 1016.9
20260906083251 23 161 0.0 0.0 0.00 0.00 0.00 80 1016.9
20260906082745 23 161 0.0 0.0 0.00 0.00 0.00 79 1016.9
20260906082241 23 161 0.0 0.0 0.00 0.00 0.00 78 1016.8
20260906081736 23 161 0.0 0.0 0.00 0.00 0.00 77 1017.0
20260906081230 24 161 0.0 0.0 0.00 0.00 0.00 76 1017.0
20260906080727 25 161 0.0 0.0 0.00 0.00 0.00 74 1016.9
20260906080224 25 161 0.0 0.0 0.00 0.00 0.00 72 1017.0
20260906075717 24 161 0.0 0.0 0.00 0.00 0.00 73 1016.9
20260906075212 24 161 0.0 0.0 0.00 0.00 0.00 75 1016.9
20260906074707 23 161 0.0 0.0 0.00 0.00 0.00 78 1016.9
20260906074206 23 161 0.0 0.0 0.00 0.00 0.00 78 1017.1
20260906073701 23 161 0.0 0.0 0.00 0.00 0.00 80 1017.0
20260906073157 23 161 0.0 0.0 0.00 0.00 0.00 80 1017.0
20260906072652 23 161 0.0 0.0 0.00 0.00 0.00 79 1016.7
20260906072148 23 161 0.0 0.0 0.00 0.00 0.00 79 1017.1
20260906071644 23 161 0.0 0.0 0.00 0.00 0.00 80 1017.3
20260906071143 23 161 0.0 0.0 0.00 0.00 0.00 80 1017.1
20260906070640 23 161 0.0 0.0 0.00 0.00 0.00 80 1017.0
20260906070136 23 161 0.0 0.0 0.00 0.00 0.00 80 1017.0
20260906065635 23 161 0.0 0.0 0.00 0.00 0.00 80 1017.2
20260906065130 23 161 0.0 0.0 0.00 0.00 0.00 80 1016.9
20260906064626 23 161 0.0 0.0 0.00 0.00 0.00 79 1017.0
20260906064121 23 161 0.0 0.0 0.00 0.00 0.00 78 1017.1
20260906063616 24 161 0.0 0.0 0.00 0.00 0.00 77 1017.2
20260906063112 24 161 0.0 0.0 0.00 0.00 0.00 77 1017.4
20260906062608 24 161 0.0 0.0 0.00 0.00 0.00 78 1017.1
20260906062106 24 161 0.0 0.0 0.00 0.00 0.00 78 1017.1
20260906061603 24 161 0.0 0.0 0.00 0.00 0.00 78 1017.1
20260906061102 24 161 0.0 0.0 0.00 0.00 0.00 77 1017.3
20260906060559 24 161 0.0 0.0 0.00 0.00 0.00 77 1017.4
20260906060056 24 161 0.0 0.0 0.00 0.00 0.00 77 1017.5
20260906055551 24 161 0.0 0.0 0.00 0.00 0.00 76 1017.4
20260906055047 24 161 0.0 0.0 0.00 0.00 0.00 76 1017.4
20260906054541 24 161 0.0 0.0 0.00 0.00 0.00 76 1017.3
20260906054037 24 161 0.0 0.0 0.00 0.00 0.00 75 1017.3
20260906053533 25 161 0.0 0.0 0.00 0.00 0.00 74 1017.4
20260906053028 25 161 0.0 0.0 0.00 0.00 0.00 74 1017.4
20260906052524 25 161 0.0 0.0 0.00 0.00 0.00 73 1017.2
20260906052021 25 161 0.0 0.0 0.00 0.00 0.00 73 1017.2
20260906051516 25 161 0.0 0.0 0.00 0.00 0.00 73 1017.4
20260906051012 25 161 0.0 0.0 0.00 0.00 0.00 72 1017.1
20260906050512 25 161 0.0 0.0 0.00 0.00 0.00 71 1017.3
20260906050006 25 161 0.0 0.0 0.00 0.00 0.00 71 1017.3
20260906045504 25 161 0.0 0.0 0.00 0.00 0.00 71 1017.0
20260906044955 25 161 0.0 0.0 0.00 0.00 0.00 70 1017.3
20260906044450 25 161 0.0 0.0 0.00 0.00 0.00 71 1017.2
20260906043946 26 161 0.0 0.0 0.00 0.00 0.00 70 1017.2
20260906043441 26 161 0.0 0.0 0.00 0.00 0.00 69 1017.1
20260906042937 26 161 0.0 0.0 0.00 0.00 0.00 67 1017.3
20260906042436 26 161 0.0 0.0 0.00 0.00 0.00 65 1017.2
20260906041931 26 161 0.0 0.0 0.00 0.00 0.00 66 1017.3
20260906041427 27 161 0.0 0.0 0.00 0.00 0.00 66 1017.1
20260906040926 27 161 0.0 0.0 0.00 0.00 0.00 65 1017.1
20260906040421 27 161 0.0 0.0 0.00 0.00 0.00 64 1017.0
20260906035911 27 161 0.0 0.0 0.00 0.00 0.00 63 1017.0
20260906035406 27 161 0.0 0.0 0.00 0.00 0.00 63 1016.8
20260906034902 27 161 0.0 0.0 0.00 0.00 0.00 62 1016.8
20260906034356 27 161 0.0 0.0 0.00 0.00 0.00 61 1016.9
20260906033852 27 161 0.0 0.0 0.00 0.00 0.00 61 1017.0
20260906033351 28 161 0.0 0.0 0.00 0.00 0.00 61 1017.0
20260906032848 28 161 0.0 0.0 0.00 0.00 0.00 60 1017.1
20260906032343 28 161 0.0 0.0 0.00 0.00 0.00 60 1017.0
20260906031838 28 161 0.0 0.0 0.00 0.00 0.00 60 1017.0
20260906031334 28 161 0.0 0.0 0.00 0.00 0.00 59 1017.1
20260906030833 28 161 0.0 0.0 0.00 0.00 0.00 60 1017.0
20260906030328 27 161 0.0 0.0 0.00 0.00 0.00 60 1017.0
20260906025823 27 161 0.0 0.0 0.00 0.00 0.00 60 1016.6
20260906025317 27 161 0.0 0.0 0.00 0.00 0.00 60 1016.7
20260906024816 28 161 0.0 0.0 0.00 0.00 0.00 59 1016.7
20260906024315 28 161 0.0 0.0 0.00 0.00 0.00 58 1016.6
20260906023811 28 161 0.0 0.0 0.00 0.00 0.00 57 1016.6
20260906023306 28 161 0.0 0.0 0.00 0.00 0.00 57 1016.7
20260906022801 28 161 0.0 0.0 0.00 0.00 0.00 58 1016.7
20260906022257 28 161 0.0 0.0 0.00 0.00 0.00 56 1016.5
20260906021752 28 161 0.0 0.0 0.00 0.00 0.00 56 1016.6
20260906021246 29 161 0.0 0.0 0.00 0.00 0.00 55 1016.5
20260906020741 29 161 0.0 0.0 0.00 0.00 0.00 56 1016.2
20260906020235 28 161 0.0 0.0 0.00 0.00 0.00 56 1016.3
20260906015730 28 161 0.0 0.0 0.00 0.00 0.00 56 1016.2
20260906015228 28 161 0.0 0.0 0.00 0.00 0.00 56 1016.4
20260906014723 28 161 0.0 0.0 0.00 0.00 0.00 57 1016.3
20260906014219 28 161 0.0 0.0 0.00 0.00 0.00 58 1016.0
20260906013715 28 161 0.0 0.0 0.00 0.00 0.00 57 1015.9
20260906013214 29 161 0.0 0.0 0.00 0.00 0.00 55 1015.8
20260906012709 29 161 0.0 0.0 0.00 0.00 0.00 56 1015.7
20260906012204 30 161 0.0 0.0 0.00 0.00 0.00 55 1015.8
20260906011659 30 161 0.0 0.0 0.00 0.00 0.00 53 1015.8
20260906011154 30 161 0.0 0.0 0.00 0.00 0.00 52 1016.0
20260906010650 30 161 0.0 0.0 0.00 0.00 0.00 53 1015.7
20260906010146 31 161 0.0 0.0 0.00 0.00 0.00 54 1015.9
20260906005645 31 161 0.0 0.0 0.00 0.00 0.00 52 1015.7
20260906005144 31 161 0.0 0.0 0.00 0.00 0.00 50 1015.6
20260906004643 32 161 0.0 0.0 0.00 0.00 0.00 48 1015.8
20260906004139 32 161 0.0 0.0 0.00 0.00 0.00 47 1015.6
20260906003634 33 161 0.0 0.0 0.00 0.00 0.00 46 1015.4
20260906003130 33 161 0.0 0.0 0.00 0.00 0.00 44 1015.6
20260906002625 35 161 0.0 0.0 0.00 0.00 0.00 42 1015.7
20260906002119 35 161 0.0 0.0 0.00 0.00 0.00 41 1015.7
20260906001615 35 161 0.0 0.0 0.00 0.00 0.00 41 1015.6
20260906001109 35 161 0.0 0.0 0.00 0.00 0.00 41 1015.5
20260906000605 36 161 0.0 0.0 0.00 0.00 0.00 39 1015.5
20260906000100 37 161 0.0 0.0 0.00 0.00 0.00 39 1015.7
20260905235559 37 161 0.0 0.0 0.00 0.00 0.00 37 1015.6
20260905235054 38 161 0.0 0.0 0.00 0.00 0.00 36 1015.6
20260905234550 38 161 0.0 0.0 0.00 0.00 0.00 35 1015.6
20260905234045 38 161 0.0 0.0 0.00 0.00 0.00 34 1015.6
20260905233544 39 161 0.0 0.0 0.00 0.00 0.00 34 1015.5
20260905233044 40 161 0.0 0.0 0.00 0.00 0.00 34 1015.5
20260905232540 41 161 0.0 0.0 0.00 0.00 0.00 31 1015.5
20260905232035 43 162 0.0 0.0 0.00 0.00 0.00 28 1015.5
20260905231530 45 162 0.0 0.0 0.00 0.00 0.00 28 1015.5
20260905231027 45 162 0.0 0.0 0.00 0.00 0.00 26 1015.5
20260905230526 45 162 0.0 0.0 0.00 0.00 0.00 26 1015.5
20260905230025 46 162 0.0 0.0 0.00 0.00 0.00 25 1015.4
20260905225519 46 162 0.0 0.0 0.00 0.00 0.00 25 1015.4
20260905225015 46 162 0.0 0.0 0.00 0.00 0.00 26 1015.3
20260905224509 47 162 0.0 0.0 0.00 0.00 0.00 24 1015.3
20260905224008 48 162 0.0 0.0 0.00 0.00 0.00 24 1015.3
20260905223501 49 162 0.0 0.0 0.00 0.00 0.00 23 1015.5
20260905222956 51 162 0.0 0.0 0.00 0.00 0.00 22 1015.4
20260905222456 51 162 0.0 0.0 0.00 0.00 0.00 22 1015.4
20260905221951 50 162 0.0 0.0 0.00 0.00 0.00 22 1015.4
20260905221448 52 162 0.0 0.0 0.00 0.00 0.00 22 1015.5
20260905220944 51 162 0.0 0.0 0.00 0.00 0.00 21 1015.5
20260905220440 51 162 0.0 0.0 0.00 0.00 0.00 21 1015.6
20260905215938 51 162 0.0 0.0 0.00 0.00 0.00 21 1015.7
20260905215434 51 162 0.0 0.0 0.00 0.00 0.00 22 1015.6
20260905214930 52 162 0.0 0.0 0.00 0.00 0.00 21 1015.5
20260905214425 52 162 0.0 0.0 0.00 0.00 0.00 21 1015.7
20260905213920 52 162 0.0 0.0 0.00 0.00 0.00 21 1015.8
20260905213416 52 162 0.0 0.0 0.00 0.00 0.00 21 1015.7
20260905212911 51 162 0.0 0.0 0.00 0.00 0.00 21 1015.8
20260905212406 50 162 0.0 0.0 0.00 0.00 0.00 22 1015.7
20260905211905 50 162 0.0 0.0 0.00 0.00 0.00 22 1015.8
20260905211401 51 162 0.0 0.0 0.00 0.00 0.00 22 1016.0
20260905210857 50 162 0.0 0.0 0.00 0.00 0.00 22 1016.2
20260905210356 49 162 0.0 0.0 0.00 0.00 0.00 22 1016.0
20260905205855 47 162 0.0 0.0 0.00 0.00 0.00 24 1016.0
20260905205350 46 161 0.0 0.0 0.00 0.00 0.00 26 1016.5
20260905204844 45 162 0.0 0.0 0.00 0.00 0.00 26 1016.4
20260905204341 45 161 0.0 0.0 0.00 0.00 0.00 26 1016.6
20260905203838 48 162 0.0 0.0 0.00 0.00 0.00 24 1016.5
20260905203335 51 162 0.0 1.6 0.00 0.00 0.00 23 1016.6
20260905202825 54 162 0.0 0.0 0.00 0.00 0.00 21 1016.7
20260905202319 56 162 0.0 0.0 0.00 0.00 0.00 20 1016.8
20260905201815 55 161 0.0 0.0 0.00 0.00 0.00 20 1016.8
20260905201310 53 161 0.0 0.0 0.00 0.00 0.00 21 1017.0
20260905200804 52 162 0.0 0.0 0.00 0.00 0.00 21 1016.9
20260905200301 52 161 0.0 0.0 0.00 0.00 0.00 21 1016.8
20260905195759 52 161 0.0 0.0 0.00 0.00 0.00 21 1017.0
20260905195254 51 161 0.0 0.0 0.00 0.00 0.00 21 1017.1
20260905194749 51 161 0.0 0.0 0.00 0.00 0.00 22 1017.1
20260905194249 50 161 0.0 0.0 0.00 0.00 0.00 23 1017.2
20260905193749 50 161 0.0 0.0 0.00 0.00 0.00 24 1017.4
20260905193243 47 161 0.0 0.0 0.00 0.00 0.00 26 1017.3
20260905192738 45 162 0.0 0.0 0.00 0.00 0.00 29 1017.3
20260905192235 46 161 0.0 0.0 0.00 0.00 0.00 28 1017.5
20260905191735 47 161 0.0 0.0 0.00 0.00 0.00 26 1017.7
20260905191233 47 161 0.0 0.0 0.00 0.00 0.00 27 1017.6
20260905190732 46 161 0.0 0.0 0.00 0.00 0.00 29 1017.7
20260905190231 50 161 0.0 0.0 0.00 0.00 0.00 25 1017.6
20260905185730 51 161 0.0 0.0 0.00 0.00 0.00 23 1017.9
20260905185225 51 161 0.0 0.0 0.00 0.00 0.00 23 1017.8
20260905184724 50 161 0.0 0.0 0.00 0.00 0.00 24 1018.0
20260905184224 48 161 0.0 0.0 0.00 0.00 0.00 24 1018.0
20260905183718 47 161 0.0 0.0 0.00 0.00 0.00 26 1017.8
20260905183214 48 161 0.0 0.0 0.00 0.00 0.00 26 1018.2
20260905182712 49 161 0.0 0.0 0.00 0.00 0.00 25 1018.2
20260905182212 49 161 0.0 0.0 0.00 0.00 0.00 24 1018.1
20260905181708 48 161 0.0 0.0 0.00 0.00 0.00 26 1018.5
20260905181201 47 161 0.0 0.0 0.00 0.00 0.00 26 1018.2
20260905180656 47 161 0.0 0.0 0.00 0.00 0.00 27 1018.5
20260905180151 45 161 0.0 0.0 0.00 0.00 0.00 30 1018.7
20260905175650 45 161 0.0 0.0 0.00 0.00 0.00 29 1018.9